Wind_Speed
44 42 42 46 59 76 89 92 92 90 88 85 80 75 71 70 72 71 69 67 68 70 69 66 63 60 57 55 52 50 48 46 46 46 48 48 47 46
42 40 39 40 49 64 79 89 91 91 89 86 84 80 75 70 69 69 69 68 67 68 69 67 65 62 60 58 56 53 51 49 47 46 47 48 48 47
40 38 37 37 41 52 67 80 87 90 90 87 85 83 80 75 70 69 68 66 66 66 67 67 66 64 63 61 59 57 55 53 51 50 50 51 50 49
40 37 36 35 36 43 55 68 79 86 89 89 86 85 83 80 75 71 68 66 66 66 66 66 66 65 64 63 62 60 58 56 54 54 54 53 52 51
39 37 36 34 34 38 45 57 68 77 84 87 86 85 84 82 79 75 71 68 67 66 66 65 65 64 64 64 62 61 59 58 57 57 57 56 55 53
39 38 36 34 33 35 39 46 56 66 75 81 84 84 84 82 80 77 74 70 69 68 66 65 63 63 63 63 63 62 61 60 59 58 57 57 56 55
39 38 37 36 34 34 36 39 46 54 63 71 77 80 82 82 80 77 75 72 70 68 67 66 64 62 62 62 62 62 62 61 60 59 59 58 57 56
39 39 38 37 36 35 35 37 40 45 52 59 65 71 76 79 78 76 74 73 71 70 67 66 65 64 62 61 61 61 61 61 61 62 60 59 59 59
39 39 39 38 37 36 36 36 38 41 45 50 57 63 68 74 75 75 74 72 70 69 68 67 66 65 64 62 61 62 61 61 61 60 60 59 60 60
38 40 39 39 37 36 36 35 36 37 39 43 49 54 59 64 68 70 70 70 69 68 68 67 66 65 64 64 63 62 62 62 62 62 61 61 61 61
38 40 40 40 39 37 36 34 34 34 35 37 42 47 52 57 61 65 67 67 66 67 67 66 66 65 65 65 65 65 64 63 63 63 63 63 63 63
35 40 41 41 40 39 37 35 33 32 31 32 34 40 47 53 58 62 62 62 62 64 64 64 64 65 65 65 65 65 65 64 64 64 65 65 66 66
33 39 42 43 42 41 39 37 35 32 30 29 31 34 39 46 53 56 58 58 58 60 62 63 65 65 66 66 67 66 66 67 68 68 69 68 68 68
29 37 42 44 44 43 41 39 37 34 33 32 32 34 36 41 47 51 53 54 56 57 58 60 62 62 63 64 65 65 67 68 70 70 70 71 71 72
25 34 41 44 46 46 44 42 40 37 36 36 36 38 40 44 47 50 53 55 55 55 56 56 58 59 61 61 62 64 66 67 68 69 71 72 73 73
20 29 37 43 46 47 47 45 43 41 40 40 39 41 44 46 49 51 55 55 54 55 55 53 53 53 53 54 56 59 62 63 64 66 67 69 70 70
15 23 32 40 45 47 48 47 46 45 43 43 43 44 45 47 49 50 52 54 53 53 52 52 50 49 49 49 50 51 51 53 54 56 57 58 60 60
10 17 26 35 42 45 47 49 48 48 47 46 46 46 47 47 47 48 49 50 51 51 51 51 51 50 49 49 48 47 47 46 47 48 48 48 48 49
7 12 19 28 37 43 46 48 49 49 49 49 48 48 48 48 48 48 48 48 49 49 49 50 50 49 49 48 48 47 46 46 45 45 45 45 45 45
7 8 13 21 30 38 44 46 48 49 50 50 50 50 49 49 49 49 48 48 48 48 48 49 49 48 48 48 48 48 48 47 46 45 45 44 44 44
11 7 9 14 22 31 39 44 47 48 50 51 51 52 52 51 50 49 49 49 49 49 49 49 49 48 48 48 48 48 48 48 47 45 45 45 45 45
26 15 7 9 15 23 32 39 44 47 49 50 50 51 52 52 52 51 51 51 51 51 50 50 51 51 50 50 49 49 48 48 46 45 44 44 44 45
40 31 20 9 8 16 23 32 39 45 47 49 50 50 51 52 52 52 52 52 53 53 53 53 53 53 53 52 51 50 49 47 46 44 44 43 43 43
Wind_Direction
244 247 249 244 235 228 223 219 218 218 220 220 220 221 222 224 226 228 228 227 226 227 228 228 228 229 230 232 233 236 236 236 236 237 237 236 237 237
240 243 246 245 237 229 225 221 218 217 218 219 219 219 219 221 223 226 227 228 227 227 227 228 228 229 230 232 233 235 237 239 240 240 240 239 238 238
237 239 241 242 238 231 226 223 220 218 217 217 219 219 219 219 221 223 225 226 227 228 228 228 228 229 230 232 234 235 237 238 239 239 239 238 239 239
233 235 236 237 235 230 226 223 221 219 217 217 218 219 220 219 220 222 224 225 226 228 229 229 229 229 231 232 234 236 237 238 238 238 239 239 239 239
228 229 231 231 231 228 224 222 221 221 219 218 218 220 220 221 221 222 224 225 226 228 229 230 230 230 231 232 234 236 237 238 238 238 238 239 241 241
222 224 225 225 225 224 222 219 219 220 220 219 218 219 221 222 222 223 224 225 226 227 228 229 230 231 231 232 233 235 236 237 238 239 239 240 241 243
217 218 219 220 220 220 219 216 216 217 219 220 220 220 221 222 223 224 225 226 227 227 228 229 230 231 231 232 233 234 236 237 238 239 240 241 243 244
213 213 214 216 217 217 216 214 212 213 215 218 219 220 220 221 222 223 225 226 228 228 229 229 230 230 231 232 233 234 235 237 239 240 241 243 243 244
209 209 210 212 213 214 214 213 211 211 212 214 217 218 219 220 222 223 225 227 229 230 231 231 231 232 232 233 233 234 235 236 237 239 241 242 244 245
206 205 206 208 210 211 211 211 211 210 211 213 215 216 218 219 221 223 224 226 229 230 231 233 234 234 235 235 235 235 236 237 238 240 241 242 243 245
204 203 204 205 207 208 209 209 209 210 210 213 214 213 214 214 216 219 221 222 224 227 230 233 233 234 234 236 237 238 238 238 239 240 241 242 244 245
204 202 202 203 205 206 206 206 207 208 210 212 212 210 210 210 211 213 215 217 220 223 225 227 230 232 231 232 234 236 237 238 239 239 240 242 244 245
206 203 202 202 203 204 205 204 204 205 206 207 207 205 205 205 205 206 207 210 215 221 223 225 227 228 229 230 231 233 234 235 236 238 239 240 242 244
210 206 204 203 203 204 204 204 203 203 203 202 201 200 198 196 197 199 200 204 209 214 218 221 223 224 225 226 227 229 230 232 233 235 237 239 241 243
216 211 207 205 204 205 205 204 203 202 201 200 198 195 194 192 194 195 198 202 206 211 214 217 219 222 224 226 227 228 229 231 232 234 236 238 241 243
221 216 212 209 207 206 206 205 204 203 202 201 200 198 195 192 192 195 197 200 204 207 211 215 218 221 223 225 227 229 230 233 235 237 240 241 244 246
227 221 216 213 211 210 209 208 206 204 203 203 202 201 200 198 197 195 195 198 201 204 208 211 216 220 224 227 228 229 231 234 237 239 241 244 246 249
237 226 221 217 215 213 212 211 209 207 206 206 206 205 205 204 204 203 203 204 205 207 210 214 217 220 223 225 227 229 231 233 236 238 241 243 246 248
266 239 226 220 217 216 215 214 213 211 209 209 208 209 209 209 209 209 210 211 212 214 215 218 220 222 223 224 226 228 231 233 235 238 240 243 245 247
305 264 238 226 220 218 217 217 216 215 213 211 211 211 211 212 212 213 213 214 215 216 217 219 221 222 224 225 227 229 231 234 237 239 241 244 246 248
358 306 261 237 226 221 219 218 218 217 216 215 214 214 215 215 215 216 216 217 218 218 219 220 222 223 225 227 228 230 232 235 237 240 243 246 248 251
26 13 324 261 238 227 223 221 219 219 219 218 217 217 217 218 218 219 220 220 221 222 223 224 225 226 227 228 229 231 233 235 237 240 243 247 250 252
31 28 22 353 267 239 229 223 221 220 220 220 220 220 219 220 221 221 223 223 224 225 225 226 227 228 228 229 231 232 233 235 237 239 242 246 249 251
Height
5422 5426 5429 5432 5438 5449 5464 5481 5500 5516 5533 5551 5565 5579 5591 5603 5615 5626 5637 5648 5658 5668 5677 5688 5698 5707 5715 5723 5730 5736 5743 5749 5756 5762 5768 5773 5778 5784
5408 5413 5416 5419 5424 5432 5444 5460 5478 5497 5514 5532 5546 5560 5573 5587 5600 5611 5622 5633 5643 5653 5664 5674 5684 5694 5702 5711 5718 5726 5732 5739 5745 5751 5757 5762 5767 5773
5395 5400 5405 5408 5412 5419 5429 5443 5459 5476 5496 5514 5527 5542 5557 5572 5585 5597 5607 5619 5629 5639 5650 5660 5671 5681 5690 5698 5706 5714 5721 5728 5734 5740 5745 5750 5756 5762
5383 5389 5394 5399 5403 5408 5416 5428 5442 5459 5478 5497 5511 5526 5541 5556 5569 5581 5593 5604 5615 5626 5636 5646 5657 5667 5677 5685 5693 5701 5709 5715 5722 5728 5733 5739 5745 5751
5372 5378 5385 5390 5395 5400 5406 5416 5429 5444 5461 5479 5496 5511 5526 5540 5554 5566 5578 5589 5601 5612 5622 5632 5643 5654 5664 5672 5681 5688 5696 5704 5710 5715 5720 5726 5733 5739
5361 5369 5375 5382 5387 5393 5399 5407 5418 5432 5447 5464 5481 5495 5510 5524 5537 5551 5564 5575 5586 5598 5609 5619 5630 5640 5650 5660 5669 5676 5683 5689 5695 5701 5708 5714 5721 5728
5351 5359 5367 5374 5380 5386 5393 5401 5411 5422 5435 5450 5466 5480 5494 5508 5524 5537 5549 5560 5571 5583 5595 5607 5619 5629 5637 5646 5654 5662 5670 5676 5683 5689 5696 5703 5709 5716
5341 5350 5359 5366 5374 5380 5388 5395 5404 5413 5425 5438 5451 5465 5479 5493 5507 5520 5533 5546 5558 5571 5582 5593 5604 5614 5624 5633 5641 5650 5657 5664 5671 5677 5684 5691 5697 5703
5333 5342 5351 5359 5367 5375 5382 5390 5398 5406 5416 5427 5438 5450 5463 5479 5494 5509 5520 5532 5545 5557 5569 5579 5590 5600 5610 5619 5627 5635 5643 5651 5659 5665 5672 5678 5683 5688
5325 5334 5344 5352 5360 5369 5377 5385 5392 5401 5410 5419 5429 5441 5452 5466 5480 5494 5506 5519 5531 5542 5554 5565 5575 5586 5596 5605 5613 5621 5630 5638 5646 5653 5659 5665 5670 5676
5319 5328 5337 5345 5354 5362 5371 5379 5387 5394 5402 5410 5419 5429 5441 5455 5467 5479 5492 5504 5516 5527 5539 5549 5560 5571 5581 5589 5598 5607 5616 5625 5632 5639 5645 5651 5656 5662
5313 5321 5330 5339 5347 5356 5365 5373 5381 5389 5396 5403 5411 5420 5430 5441 5453 5465 5479 5492 5504 5514 5525 5536 5546 5556 5565 5574 5583 5593 5602 5610 5617 5624 5631 5637 5642 5647
5308 5315 5323 5332 5341 5350 5359 5367 5376 5383 5391 5398 5405 5413 5422 5431 5442 5454 5467 5481 5493 5503 5513 5523 5533 5543 5553 5562 5570 5579 5588 5595 5602 5608 5615 5622 5627 5632
5304 5311 5318 5326 5335 5343 5352 5361 5370 5378 5386 5394 5401 5408 5416 5425 5435 5447 5459 5471 5482 5492 5501 5512 5521 5531 5540 5548 5557 5565 5572 5579 5585 5592 5599 5606 5611 5617
5301 5307 5313 5321 5329 5337 5346 5355 5364 5373 5381 5389 5397 5405 5413 5421 5431 5441 5452 5462 5471 5480 5489 5498 5507 5516 5525 5534 5542 5550 5557 5564 5570 5577 5584 5590 5596 5602
5298 5303 5309 5316 5323 5332 5340 5349 5358 5367 5375 5384 5392 5400 5409 5417 5426 5435 5444 5453 5462 5470 5479 5487 5495 5504 5513 5521 5529 5537 5544 5550 5557 5564 5570 5576 5582 5588
5296 5299 5305 5311 5319 5326 5335 5343 5352 5361 5369 5378 5387 5395 5403 5412 5420 5427 5436 5444 5453 5461 5469 5478 5486 5494 5502 5510 5518 5526 5533 5540 5546 5552 5558 5565 5570 5576
5294 5296 5300 5306 5313 5321 5329 5337 5345 5354 5363 5372 5380 5389 5397 5405 5413 5421 5429 5437 5445 5453 5462 5470 5478 5487 5494 5502 5509 5516 5523 5530 5536 5542 5548 5554 5560 5564
5292 5293 5296 5300 5307 5314 5322 5330 5339 5347 5356 5364 5373 5382 5390 5399 5407 5414 5422 5430 5438 5446 5454 5462 5470 5478 5486 5493 5500 5507 5514 5520 5526 5532 5538 5543 5548 5552
5291 5292 5293 5296 5301 5307 5315 5323 5331 5340 5348 5357 5365 5374 5382 5391 5399 5407 5415 5422 5430 5438 5446 5453 5461 5469 5477 5484 5491 5498 5504 5511 5517 5522 5527 5532 5536 5541
5291 5290 5291 5292 5296 5300 5307 5315 5323 5331 5340 5348 5357 5365 5374 5382 5390 5398 5406 5414 5421 5429 5437 5445 5452 5460 5467 5475 5481 5488 5494 5500 5506 5511 5516 5521 5525 5529
5295 5291 5290 5290 5292 5295 5300 5307 5314 5322 5331 5339 5348 5356 5364 5373 5381 5389 5396 5404 5412 5420 5427 5435 5442 5450 5457 5464 5471 5478 5484 5490 5495 5500 5505 5510 5514 5518
5301 5296 5292 5290 5290 5291 5295 5299 5306 5313 5321 5329 5338 5346 5354 5362 5370 5378 5386 5394 5402 5409 5417 5425 5432 5439 5446 5453 5460 5467 5474 5479 5485 5490 5495 5499 5503 5507